{"data":{"norad_id":47287,"epoch":"2026-05-25T03:27:28.950912Z","epoch_age_seconds":59668,"freshness":"FRESH","line1":"1 47287U 20100AF  26145.14408508 -.00000341  00000+0 -98459-3 0  9996","line2":"2 47287  87.8959 355.2294 0001979  93.9518 266.1836 13.12442168261651","mean_motion":13.12442168,"eccentricity":0.0001979,"inclination_deg":87.8959,"raan_deg":355.2294,"arg_perigee_deg":93.9518,"mean_anomaly_deg":266.1836,"bstar":-0.00098459,"rev_number":26165,"period_min":109.71912021041,"perigee_km":1212.2240697465,"apogee_km":1215.2289293196,"semimajor_km":7591.8634995331,"source":"CELESTRAK","updated_at":"2026-05-25T13:38:22.385697Z"}}